Wind_Speed
5 5 5 4 4 3 3 2 2 1 1 1 0 1 1 1 1 1 1 1 1 2 2 3 3 3 2 2 2 2 2 3 4 4 5 6 6 7 7 7 7 7 7
4 4 4 3 3 3 3 2 2 2 1 0 0 1 1 1 1 2 2 2 3 3 4 3 4 4 4 4 3 3 4 4 5 6 6 7 8 8 8 8 8 9 9
5 4 2 2 2 2 1 1 1 1 1 1 1 2 2 2 2 3 3 4 4 4 4 4 5 5 6 6 5 6 5 6 6 7 7 8 8 9 10 9 9 10 10
3 2 2 2 2 1 1 1 1 1 2 2 2 3 3 4 3 4 4 5 5 5 5 5 6 6 7 7 7 7 7 7 8 8 8 8 9 10 11 11 11 10 10
3 2 2 2 2 2 2 2 2 2 3 3 3 3 4 4 5 5 5 5 5 6 6 7 7 8 8 8 8 8 8 9 10 10 10 10 11 11 11 11 12 12 12
4 3 2 2 3 3 3 2 2 2 2 3 4 4 4 5 6 6 6 6 6 7 8 8 9 9 10 9 9 9 10 11 11 11 11 12 12 12 12 13 13 13 14
6 4 3 3 3 4 4 3 2 2 3 4 5 5 5 6 6 6 7 7 8 8 8 9 10 10 11 12 11 12 12 12 12 12 12 13 14 14 14 14 14 15 15
7 6 4 4 4 4 4 4 4 4 4 5 6 6 6 7 7 7 7 7 8 9 9 10 10 11 12 12 12 12 12 12 13 13 14 14 15 15 16 16 16 16 17
6 6 5 5 5 4 4 4 4 5 6 6 7 7 8 8 9 8 8 8 9 10 10 10 11 11 11 11 12 13 14 14 15 15 15 16 16 16 17 17 18 18 18
7 6 6 6 6 5 5 5 6 6 7 8 8 8 9 10 10 10 10 10 10 11 11 12 12 12 13 13 13 14 15 15 16 16 16 16 16 17 17 17 19 19 20
8 7 7 7 6 6 6 7 8 8 8 9 9 10 10 10 10 11 11 11 11 12 12 13 14 14 14 14 15 15 15 16 16 16 16 17 17 18 18 18 19 19 20
9 8 8 8 8 8 8 9 9 9 10 11 11 11 11 11 11 11 12 13 13 14 14 14 15 15 16 16 16 16 16 17 17 17 18 18 19 19 20 20 21 21 21
10 9 9 8 8 8 9 9 10 11 12 12 12 11 12 12 13 13 13 13 14 14 15 16 15 16 17 17 17 17 18 19 19 20 20 20 20 21 22 22 23 23 24
10 10 9 9 9 9 10 10 11 12 13 13 13 13 13 13 13 13 13 14 14 15 15 16 16 16 17 18 19 19 19 20 21 21 22 22 23 24 24 24 25 25 26
11 11 10 10 10 10 11 11 12 12 12 12 12 12 13 13 13 14 14 15 15 16 17 17 18 18 19 19 20 20 20 21 21 22 23 24 25 25 25 26 26 27 27
11 11 11 11 11 11 11 12 13 13 13 13 12 12 13 13 14 14 15 15 16 17 18 19 19 19 20 21 21 21 21 22 22 23 24 24 25 25 26 27 28 27 27
12 11 12 11 11 11 12 12 13 13 14 14 13 13 13 13 14 15 15 16 17 17 18 19 19 20 20 21 21 21 22 23 23 24 24 25 26 26 27 28 29 29 30
12 12 12 12 12 12 12 12 13 13 14 14 14 14 14 14 15 16 17 17 18 18 18 19 19 19 20 21 21 22 22 24 24 24 24 25 25 27 28 29 29 30 31
12 13 13 13 12 13 13 13 14 15 15 15 16 16 16 16 17 17 17 18 18 18 18 19 19 20 21 21 22 23 24 24 25 26 26 27 28 29 29 29 30 31 32
13 14 14 14 14 14 14 15 15 16 16 16 17 17 18 18 17 17 18 18 19 19 20 20 21 21 22 23 23 24 25 26 26 27 28 29 30 30 30 31 32 33 33
14 14 14 14 15 15 14 15 16 16 17 17 17 18 18 18 17 18 18 19 20 20 21 21 22 23 24 24 25 26 27 27 28 28 29 30 30 31 32 32 33 33 34
15 15 15 16 16 16 15 16 17 17 18 18 18 18 18 18 18 19 20 20 20 21 22 22 23 24 24 25 26 26 27 27 29 30 31 30 31 32 32 33 33 34 35
16 16 16 17 17 17 18 18 17 18 19 19 19 19 19 19 19 20 20 20 21 22 22 23 23 24 24 25 26 27 28 29 30 30 30 31 32 32 33 33 34 35 35
17 17 17 17 18 19 19 19 19 19 20 20 20 20 20 21 21 21 21 22 22 22 23 23 24 25 26 26 27 28 29 29 30 31 32 32 33 33 32 33 34 34 35
18 18 18 18 19 20 20 20 20 21 21 21 20 21 21 22 22 23 23 23 23 24 25 26 26 27 28 28 29 29 29 30 31 32 32 32 33 33 33 33 34 34 35
19 19 19 20 20 20 20 20 21 21 21 21 21 22 22 23 24 23 23 24 24 25 26 27 27 28 29 29 30 30 30 31 32 33 33 33 34 34 34 35 35 35 35
Wind_Direction
90 96 103 117 121 129 144 146 131 137 129 144 135 87 64 56 32 17 357 342 329 318 309 310 310 307 298 289 270 260 265 270 251 255 252 250 251 251 253 252 252 253 256
73 82 88 112 120 119 137 156 160 168 177 158 294 297 289 296 281 291 297 309 321 314 304 298 301 297 293 295 274 277 275 274 268 267 266 260 258 257 258 256 257 258 260
63 66 73 94 105 127 158 181 195 193 237 275 327 325 297 275 280 286 288 293 302 305 304 301 300 294 288 286 281 279 278 277 274 277 274 268 264 263 259 259 261 263 264
45 49 63 31 30 36 301 259 261 265 282 281 290 306 302 281 273 284 292 290 295 298 294 294 293 293 290 285 282 279 275 282 284 282 280 276 272 267 264 261 260 263 266
11 19 14 4 1 10 337 292 278 283 283 278 286 293 295 297 281 277 289 292 300 298 292 287 286 286 289 289 283 278 277 284 285 284 281 279 277 271 266 264 263 265 267
10 353 344 336 331 344 358 350 314 320 306 299 297 296 293 300 295 287 290 292 297 300 297 290 284 284 284 283 283 278 280 285 286 286 283 279 276 272 268 267 269 272 273
360 356 336 323 336 341 355 354 338 312 301 298 301 307 306 301 301 295 289 287 288 293 295 294 289 285 284 281 281 280 280 284 286 285 282 280 278 275 272 271 272 275 277
10 3 354 346 338 338 344 348 338 328 307 295 296 298 303 302 300 296 292 292 289 292 293 294 292 290 288 284 281 280 280 283 283 283 282 280 279 277 274 273 274 276 276
360 359 349 336 332 325 326 329 322 317 313 306 300 300 298 297 292 290 288 291 291 291 292 293 294 292 292 287 284 282 280 282 280 280 281 279 277 277 276 275 273 275 277
351 343 336 328 323 317 314 316 314 311 308 308 305 300 299 299 291 286 284 286 289 291 292 291 291 291 292 288 287 284 284 284 279 281 283 282 278 279 278 276 277 278 279
346 336 326 322 318 314 312 310 305 305 305 306 306 302 298 297 291 286 285 286 287 289 293 292 291 290 290 290 288 287 284 287 282 282 282 282 280 278 278 277 279 280 280
337 333 322 314 313 309 305 306 304 306 305 303 301 300 300 297 295 289 286 287 287 289 290 291 290 287 289 287 286 286 286 285 284 282 281 281 280 278 278 279 279 278 278
334 328 326 319 316 313 309 308 304 304 306 303 298 295 294 293 292 291 287 286 287 289 289 290 291 290 291 288 287 286 287 285 285 283 282 282 281 279 279 279 279 279 279
335 329 325 320 314 311 310 310 308 305 306 304 302 296 294 294 293 292 289 288 288 288 290 291 290 290 292 289 288 287 287 286 286 283 283 283 282 281 278 278 278 279 279
333 330 323 319 313 312 311 310 311 310 309 308 303 299 295 293 292 291 289 290 290 289 290 290 290 290 291 290 287 287 286 285 285 283 283 283 283 282 279 279 279 280 280
331 328 327 320 316 315 314 313 312 313 313 312 306 301 298 296 295 295 291 288 288 290 290 292 294 292 289 287 285 286 287 290 287 285 285 285 284 284 284 283 281 281 281
329 327 326 325 321 317 315 314 316 316 315 314 310 305 301 296 296 295 295 292 293 294 292 292 294 293 291 289 287 288 289 291 291 290 288 287 286 285 285 285 283 282 282
333 331 328 325 325 324 322 319 317 315 315 314 311 308 305 302 299 297 297 294 293 293 293 294 296 296 296 291 290 291 291 291 292 293 291 289 288 286 286 285 284 284 284
328 327 328 326 325 323 322 321 321 318 313 313 310 308 307 307 304 300 300 298 297 295 295 296 297 295 297 297 296 295 295 295 295 295 295 293 292 290 289 287 287 286 285
322 323 321 320 320 319 321 322 322 320 315 313 312 308 306 307 306 304 303 302 301 298 298 299 299 298 298 296 297 299 298 297 295 297 298 296 294 293 292 291 290 289 287
319 320 317 317 318 317 319 321 321 320 317 313 311 310 308 307 305 306 305 305 302 301 300 300 299 300 299 299 298 297 298 297 297 299 298 297 296 295 294 293 292 291 289
316 317 315 313 314 315 317 318 320 320 318 316 315 314 311 309 308 306 305 303 302 301 300 299 299 299 299 299 298 298 298 297 298 298 298 298 299 298 297 296 295 294 293
313 314 313 315 314 313 315 317 318 317 316 317 316 315 313 310 308 306 304 303 303 303 303 301 300 301 301 299 298 298 298 299 300 300 300 300 300 300 299 298 297 296 295
308 309 310 313 314 312 313 314 316 316 316 317 316 316 315 315 310 307 305 305 305 305 304 303 303 302 301 299 298 299 300 300 301 301 301 301 301 302 301 299 298 298 297
303 304 306 309 311 313 314 314 316 315 316 316 315 314 314 313 313 309 306 305 305 305 304 304 304 304 304 303 301 301 302 302 302 302 302 302 302 302 302 301 300 300 299
299 300 303 307 309 312 314 315 315 315 313 312 312 312 311 311 311 310 309 307 306 306 306 306 306 306 305 305 304 302 302 302 302 303 303 303 303 303 302 301 301 301 301
Height
5888 5888 5889 5889 5890 5890 5890 5891 5891 5891 5892 5892 5892 5892 5892 5892 5892 5892 5892 5892 5892 5892 5892 5892 5892 5892 5892 5892 5892 5892 5893 5893 5893 5893 5893 5893 5894 5894 5895 5895 5895 5896 5896
5889 5889 5889 5890 5890 5890 5890 5891 5891 5891 5892 5892 5892 5892 5892 5892 5892 5892 5892 5892 5892 5891 5891 5891 5892 5892 5892 5892 5892 5892 5892 5892 5892 5892 5892 5892 5892 5893 5893 5893 5894 5894 5894
5890 5890 5890 5890 5890 5890 5890 5890 5891 5891 5891 5891 5891 5892 5891 5891 5891 5891 5891 5891 5891 5891 5891 5891 5891 5891 5891 5891 5891 5891 5891 5891 5891 5891 5890 5890 5891 5891 5891 5891 5891 5892 5892
5891 5891 5891 5891 5890 5890 5890 5890 5891 5891 5891 5891 5891 5891 5891 5890 5890 5891 5891 5891 5891 5890 5890 5890 5890 5890 5890 5890 5889 5889 5889 5890 5889 5889 5889 5889 5889 5889 5888 5888 5889 5889 5889
5892 5892 5892 5891 5891 5890 5890 5890 5890 5890 5891 5890 5890 5890 5890 5890 5890 5890 5890 5890 5890 5889 5889 5889 5889 5889 5888 5888 5888 5887 5888 5888 5887 5887 5887 5887 5886 5886 5886 5886 5886 5886 5886
5892 5892 5892 5891 5891 5891 5890 5890 5890 5890 5890 5890 5890 5890 5890 5889 5889 5889 5889 5889 5889 5888 5888 5887 5887 5887 5887 5886 5886 5886 5886 5885 5885 5885 5884 5884 5884 5883 5883 5883 5883 5883 5883
5893 5892 5892 5892 5892 5891 5891 5890 5890 5890 5890 5890 5890 5889 5889 5888 5888 5888 5888 5887 5887 5887 5886 5886 5885 5885 5885 5884 5884 5884 5883 5883 5882 5882 5882 5881 5881 5880 5880 5880 5880 5880 5880
5894 5893 5892 5892 5892 5891 5890 5890 5890 5889 5889 5889 5888 5888 5888 5888 5887 5886 5886 5886 5886 5885 5885 5884 5883 5883 5882 5882 5882 5881 5881 5880 5880 5879 5879 5878 5878 5877 5877 5877 5876 5876 5876
5894 5893 5892 5892 5891 5891 5890 5890 5889 5889 5889 5888 5887 5887 5886 5886 5885 5885 5884 5884 5884 5883 5883 5882 5881 5881 5880 5879 5879 5879 5878 5878 5877 5876 5875 5875 5874 5874 5873 5873 5872 5872 5872
5894 5893 5892 5891 5891 5890 5890 5889 5889 5888 5888 5887 5886 5885 5885 5884 5883 5883 5883 5882 5881 5881 5880 5879 5879 5878 5877 5877 5876 5875 5875 5874 5873 5873 5872 5871 5871 5870 5869 5869 5868 5867 5867
5894 5893 5892 5891 5890 5889 5889 5888 5888 5887 5886 5885 5884 5883 5883 5882 5881 5881 5880 5880 5879 5878 5878 5877 5876 5875 5874 5874 5873 5872 5871 5870 5869 5869 5868 5867 5867 5866 5865 5865 5864 5863 5862
5893 5892 5891 5890 5889 5888 5888 5887 5886 5885 5884 5883 5882 5881 5880 5879 5879 5878 5878 5877 5876 5875 5875 5874 5873 5872 5871 5870 5869 5868 5867 5866 5866 5865 5864 5863 5862 5861 5861 5860 5859 5858 5857
5892 5891 5890 5889 5888 5887 5886 5885 5884 5883 5882 5881 5879 5878 5877 5877 5876 5875 5875 5874 5873 5872 5871 5870 5869 5868 5867 5866 5865 5864 5863 5862 5861 5860 5859 5858 5857 5856 5856 5855 5854 5853 5852
5891 5890 5888 5887 5886 5885 5884 5883 5882 5881 5879 5878 5876 5875 5875 5874 5873 5872 5872 5871 5870 5869 5868 5867 5866 5865 5863 5862 5861 5860 5859 5857 5856 5855 5854 5853 5852 5851 5850 5849 5848 5847 5845
5890 5889 5887 5886 5885 5884 5882 5881 5880 5879 5877 5875 5874 5873 5872 5871 5870 5869 5868 5867 5867 5865 5864 5863 5861 5860 5859 5858 5857 5855 5854 5853 5851 5850 5848 5847 5846 5845 5844 5842 5841 5840 5839
5889 5888 5886 5885 5883 5882 5881 5879 5878 5876 5875 5873 5872 5870 5869 5868 5867 5865 5864 5863 5862 5862 5860 5858 5857 5855 5854 5853 5852 5851 5849 5847 5846 5844 5843 5841 5840 5838 5837 5836 5834 5833 5831
5888 5886 5885 5883 5882 5880 5879 5877 5876 5874 5873 5871 5869 5867 5866 5864 5863 5862 5861 5859 5858 5857 5856 5854 5852 5851 5849 5848 5846 5845 5844 5842 5841 5838 5837 5835 5833 5832 5830 5828 5827 5825 5823
5887 5885 5883 5882 5880 5879 5877 5875 5874 5872 5870 5868 5867 5865 5863 5861 5860 5858 5857 5856 5854 5853 5851 5849 5848 5846 5845 5843 5841 5840 5838 5836 5835 5832 5830 5828 5826 5824 5822 5820 5819 5817 5815
5885 5884 5882 5880 5879 5877 5875 5873 5872 5869 5867 5866 5864 5862 5860 5858 5857 5855 5853 5852 5850 5848 5846 5845 5843 5842 5840 5838 5836 5834 5832 5830 5828 5826 5823 5821 5819 5816 5814 5812 5810 5808 5806
5884 5882 5880 5878 5876 5874 5873 5871 5869 5867 5865 5863 5861 5859 5857 5855 5853 5851 5849 5848 5846 5844 5842 5840 5838 5836 5835 5832 5830 5828 5826 5824 5822 5819 5816 5814 5811 5809 5806 5804 5802 5799 5797
5882 5880 5878 5876 5874 5872 5870 5868 5866 5864 5862 5860 5858 5856 5854 5852 5850 5848 5846 5844 5842 5839 5837 5835 5833 5831 5829 5827 5824 5822 5819 5817 5814 5812 5809 5806 5803 5801 5798 5795 5792 5790 5787
5879 5877 5875 5873 5871 5869 5867 5865 5863 5861 5859 5857 5855 5853 5850 5848 5846 5844 5841 5839 5837 5835 5833 5831 5828 5826 5823 5820 5818 5815 5812 5810 5807 5804 5801 5798 5795 5792 5789 5786 5783 5780 5777
5876 5874 5872 5870 5868 5867 5865 5862 5860 5858 5856 5854 5851 5849 5846 5844 5842 5839 5837 5835 5832 5830 5827 5825 5822 5820 5817 5814 5811 5808 5805 5802 5799 5796 5793 5790 5787 5784 5780 5777 5773 5770 5767
5873 5871 5869 5867 5865 5863 5861 5859 5857 5855 5852 5850 5847 5845 5842 5840 5837 5835 5832 5830 5827 5824 5822 5819 5816 5813 5810 5807 5804 5801 5798 5795 5792 5789 5785 5782 5779 5775 5771 5768 5764 5760 5757
5870 5868 5866 5864 5862 5860 5857 5855 5853 5850 5848 5845 5843 5840 5838 5835 5833 5830 5827 5825 5822 5819 5816 5813 5810 5807 5804 5800 5797 5794 5791 5788 5784 5781 5777 5773 5770 5766 5763 5759 5755 5751 5747
5866 5864 5862 5860 5858 5856 5854 5851 5849 5846 5844 5841 5839 5836 5833 5830 5827 5824 5822 5819 5816 5813 5810 5807 5803 5800 5797 5793 5790 5786 5783 5780 5776 5772 5768 5765 5761 5757 5754 5749 5745 5741 5737